Clarksville, TN

4:05 PM CDT on August 19, 2017 (GMT -0500)
Outlaw

Weather History for KCKV - December, 2011

Change the Weather History Date:

Friday, December 30, 2011

  Actual Average Record
Temperature  
Mean Temperature 53 °F 36 °F  
Max Temperature 59 °F 46 °F 74 °F (1951)
Min Temperature 47 °F 27 °F 0 °F (1983)
Degree Days  
Heating Degree Days 12    
Month to date heating degree days 685  
Since 1 July heating degree days  
Cooling Degree Days 0    
Month to date cooling degree days 0  
Year to date cooling degree days  
Growing Degree Days 4 (Base 50)    
Moisture  
Dew Point 42 °F    
Average Humidity 64    
Maximum Humidity 80    
Minimum Humidity 47    
Precipitation  
Precipitation 0.00 in 0.13 in 1.81 in (1969)
Month to date precipitation 5.96 4.91  
Year to date precipitation 50.06  
Sea Level Pressure  
Sea Level Pressure 29.83 in    
Wind  
Wind Speed 12 mph (SW)    
Max Wind Speed 29 mph    
Max Gust Speed 37 mph    
Visibility 10 miles    
Events      
T = Trace of Precipitation, MM = Missing Value Source: NWS Daily Summary

Daily Weather History Graph

Daily Weather History Graph

Search for Another Location

Airport or City:

Trip Planner

Search our weather history database for the weather conditions in past years. The results will help you decide how hot, cold, wet, or windy it might be!

Date:

Astronomy

Dec. 30, 2011 Rise Set
Actual Time 7:01 AM CST 4:42 PM CST
Civil Twilight 6:32 AM CST 5:11 PM CST
Nautical Twilight 6:00 AM CST 5:44 PM CST
Astronomical Twilight 5:28 AM CST 6:15 PM CST
Moon 10:31 AM CST (12/30) 11:06 PM CST (12/30)
Length of Visible Light 10h 39m
Length of Day
9h 41m
Waxing Crescent, 36% of the Moon is Illuminated
Dec 30
Waxing Crescent
Jan 1
First Quarter
Jan 9
Full
Jan 16
Last Quarter
Jan 23
New

Hourly Weather History & Observations

Time (CST) Temp. Dew Point Humidity Pressure Visibility Wind Dir Wind Speed Gust Speed Precip Events Conditions
12:52 AM 48.0 °F 41.0 °F 77% 29.89 in 10.0 mi South 6.9 mph - N/A   Scattered Clouds
1:52 AM 48.0 °F 42.1 °F 80% 29.89 in 10.0 mi SSW 6.9 mph - N/A   Clear
2:52 AM 48.9 °F 43.0 °F 80% 29.88 in 10.0 mi South 10.4 mph - N/A   Clear
3:52 AM 48.9 °F 43.0 °F 80% 29.86 in 10.0 mi South 9.2 mph - N/A   Clear
4:52 AM 48.0 °F 43.0 °F 83% 29.84 in 10.0 mi South 9.2 mph - N/A   Clear
5:52 AM 48.0 °F 43.0 °F 83% 29.84 in 10.0 mi South 13.8 mph - N/A   Partly Cloudy
6:52 AM 50.0 °F 44.1 °F 80% 29.83 in 10.0 mi South 13.8 mph 20.7 mph N/A   Overcast
7:52 AM 51.1 °F 45.0 °F 80% 29.82 in 10.0 mi South 18.4 mph 23.0 mph N/A   Partly Cloudy
8:52 AM 53.1 °F 46.0 °F 77% 29.80 in 10.0 mi SSW 16.1 mph 26.5 mph N/A   Mostly Cloudy
9:23 AM 53.6 °F 46.4 °F 77% 29.80 in 10.0 mi SSW 16.1 mph - N/A   Overcast
9:52 AM 55.9 °F 48.0 °F 75% 29.78 in 10.0 mi SSW 18.4 mph 27.6 mph N/A   Overcast
10:52 AM 55.9 °F 48.0 °F 75% 29.77 in 10.0 mi SSW 16.1 mph 31.1 mph N/A   Mostly Cloudy
12:19 PM 57.2 °F 46.4 °F 67% 29.74 in 10.0 mi SW 13.8 mph 27.6 mph N/A   Mostly Cloudy
12:52 PM 57.9 °F 46.0 °F 65% 29.74 in 10.0 mi WSW 13.8 mph 23.0 mph N/A   Scattered Clouds
1:52 PM 57.9 °F 41.0 °F 53% 29.75 in 10.0 mi WSW 18.4 mph 28.8 mph N/A   Partly Cloudy
2:52 PM 59.0 °F 41.0 °F 51% 29.77 in 10.0 mi SW 12.7 mph 24.2 mph N/A   Clear
3:52 PM 57.9 °F 37.9 °F 47% 29.78 in 10.0 mi WSW 11.5 mph - N/A   Clear
4:52 PM 55.9 °F 37.0 °F 49% 29.81 in 10.0 mi WSW 10.4 mph 25.3 mph N/A   Clear
5:52 PM 53.1 °F 37.9 °F 57% 29.84 in 10.0 mi SW 6.9 mph - N/A   Clear
6:52 PM 52.0 °F 37.9 °F 59% 29.86 in 10.0 mi SW 8.1 mph - N/A   Clear
7:52 PM 51.1 °F 37.9 °F 61% 29.87 in 10.0 mi SW 6.9 mph - N/A   Clear
8:52 PM 51.1 °F 39.0 °F 63% 29.89 in 10.0 mi SW 9.2 mph - N/A   Clear
9:52 PM 50.0 °F 39.0 °F 66% 29.90 in 10.0 mi WSW 9.2 mph - N/A   Clear
10:52 PM 48.9 °F 39.0 °F 69% 29.90 in 10.0 mi WSW 6.9 mph - N/A   Clear
11:52 PM 48.0 °F 37.9 °F 68% 29.92 in 10.0 mi WSW 8.1 mph - N/A   Clear